Tracking 28125 objects as of 3-Oct-2023
HD Live streaming from Space Station
objects crossing your sky now

STARLINK-3819

Track STARLINK-3819 now!
10-day predictions
STARLINK-3819 is classified as:


NORAD ID: 52349
Int'l Code: 2022-045U
Perigee: 545.9 km
Apogee: 547.8 km
Inclination: 53.2 °
Period: 95.4 minutes
Semi major axis: 6917 km
RCS: Unknown
Launch date: April 29, 2022
Source: United States (US)
Launch site: AIR FORCE EASTERN TEST RANGE (AFETR)
Your satellite tracking list
Your tracking list is empty




NASA's NSSDC Master Catalog

Two Line Element Set (TLE):
1 52349U 22045U   23276.16668333  .00007972  00000-0  51816-3 0  9991
2 52349  53.2159 227.8560 0001351 101.1283 258.9861 15.08855125 81644
Source of the keplerian elements: AFSPC